Starlink 31593

operational
NORAD ID: 59350 Int'l Des: 2024-060 Owner: SPXS Country: US Constellation: starlink
LEOCIRCULAR

About Starlink 31593

Description loading...

Live Position

Loading 3D Globe...

Upcoming Passes

Altitude History

Altitude vs Time

uPlot chart will show altitude changes over time

Two-Line Element Set

1 59350U 24060C 25350.36327957 .00004171 00000-0 16097-3 0 9990
2 59350 43.0022 10.0541 0000999 247.8419 112.2327 15.27588572 97327
Epoch: Dec 16, 2025 • Age: 20 hours

Current Status

Altitude 482.0 km
Velocity 7.63 km/s
Sub-Earth Point 7.39°N, 27.14°E
Launch Date Mar 31, 2024
Age 1.7 years
Type internet

Technical Details

Classification Payload
Mass 730.00 kg
Dry Mass 700.00 kg
Total Mass 730.00 kg
Length 0.30 m
Diameter 4.10 m
Span 29.00 m
Shape Box + pan
Manufacturer SPXS
Bus Type Starlink V2M
Phase Status In Orbit
Owner/State SPXS/US

Large Constellations

Loading constellations...